Preview of NWS' New Version of Forecast
This preview is not operational and should not be used for support decisions.

Regional Weather Roundup (RWR)

Issued by National Weather Service (NWS)

                            
000
ASUS43 KBIS 180610
RWRND 

NORTH DAKOTA REGIONAL WEATHER ROUNDUP
NATIONAL WEATHER SERVICE BISMARCK ND
100 AM CDT THU APR 18 2019

NOTE: "FAIR" INDICATES FEW OR NO CLOUDS BELOW 12,000 FEET WITH NO
SIGNIFICANT WEATHER AND/OR OBSTRUCTIONS TO VISIBILITY.


NDZ001>003-009>011-017-180700-
NORTHWEST NORTH DAKOTA
  
CITY           SKY/WX    TMP DP  RH WIND       PRES   REMARKS
WILLISTON      CLEAR     36  31  82 CALM      29.90R                  
6HR MIN TEMP:  35; 6HR MAX TEMP:  59;                                

MINOT          FOG       39  37  92 SW9       29.88S VSB 1/2          
$$
 
NDZ018>021-031>035-040>046-180700-
SOUTHWEST NORTH DAKOTA
  
CITY           SKY/WX    TMP DP  RH WIND       PRES   REMARKS
BISMARCK       CLEAR     36  35  96 W7        29.88S FOG              
6HR MIN TEMP:  36; 6HR MAX TEMP:  48;                                

DICKINSON      CLEAR     34  31  88 W9        29.87R                  
GARRISON         N/A     34  34 100 CALM      29.88R                  
6HR MIN TEMP:  33; 6HR MAX TEMP:  48;                                

HETTINGER ARPT PTCLDY    37  32  82 NW7       29.91R                  
$$
 
NDZ004>008-012>016-024-026-027-054-180700-
NORTHEAST NORTH DAKOTA
  
CITY           SKY/WX    TMP DP  RH WIND       PRES   REMARKS
GRAND FORKS    CLOUDY    41  39  93 NW7       29.85S                  
DEVILS LAKE    LGT RAIN  41  41 100 CALM      29.88S                  
$$
 
NDZ022-023-025-028>030-036>039-047>053-180700-
SOUTHEAST NORTH DAKOTA
  
CITY           SKY/WX    TMP DP  RH WIND       PRES   REMARKS
FARGO          LGT RAIN  43  43 100 N3        29.83S                  
6HR MIN TEMP:  43; 6HR MAX TEMP:  47; 6HR PCP:  0.07;                

JAMESTOWN      CLOUDY    40  40 100 NW7       29.84S                  
$$